Wind_Speed
35 37 36 34 33 32 29 26 25 26 27 27 24 21 21 20 19 18 17 15 13 12 11 10 9 8 7 7 6 6 6 6 5 4 4 4 5 5 5 5 5 4 4 4 4 4 3 3 3 3 3 4 4 4 5 6 6 7 8 8 8 8 9 9 10 11 12 12 12 13 13 13 14 14
34 36 36 34 33 32 29 26 26 27 28 29 26 24 23 23 21 20 18 16 14 13 13 12 11 10 9 8 7 7 7 6 6 5 5 5 4 5 5 4 4 4 4 5 5 5 5 4 4 4 5 5 5 6 6 7 8 9 9 9 10 10 10 10 11 12 13 13 13 13 14 14 14 14
30 31 32 32 32 31 29 27 27 28 29 30 29 27 25 24 23 22 20 18 16 16 15 14 13 12 11 10 9 8 8 7 7 6 6 5 5 5 5 5 5 5 5 5 6 6 6 6 6 5 6 6 7 7 7 8 8 9 10 11 11 11 11 11 11 12 13 14 14 14 15 15 16 16
29 28 29 30 31 32 31 29 28 29 30 31 31 30 28 27 25 24 21 19 19 18 18 17 15 15 14 13 12 10 10 10 9 8 7 7 7 7 7 7 7 7 7 7 7 8 8 7 7 6 6 7 7 8 8 8 8 9 10 11 12 12 12 12 12 13 13 14 14 15 16 17 17 18
30 29 30 31 32 33 32 30 29 29 31 32 32 31 30 29 28 26 24 22 22 21 20 19 18 18 16 15 15 13 13 13 12 11 11 10 10 10 10 10 10 10 10 10 9 9 9 8 7 7 6 7 7 7 7 7 7 8 10 11 12 12 13 13 13 13 14 14 14 15 16 17 18 19
32 32 31 32 33 33 32 30 30 29 30 32 33 33 32 31 31 29 27 26 25 23 22 22 21 20 19 19 18 17 16 15 14 14 14 14 13 13 12 13 13 13 13 12 11 10 10 10 9 8 7 7 7 7 6 6 7 8 9 11 12 12 13 13 13 14 14 14 14 15 16 17 19 21
33 34 34 35 35 34 33 31 30 30 30 31 32 33 34 33 33 33 31 29 27 26 26 25 24 23 22 22 22 21 20 17 15 16 17 16 15 15 15 15 15 15 15 14 13 12 11 11 11 10 9 8 8 7 7 7 7 8 10 12 13 13 13 13 13 14 14 14 14 15 16 17 19 22
36 36 36 37 37 36 34 32 31 31 31 31 31 33 35 36 36 36 35 33 31 29 29 28 26 25 25 25 25 25 22 20 18 18 18 18 17 17 16 16 16 16 16 15 14 13 13 13 13 12 11 10 10 9 9 9 9 10 12 13 13 13 13 13 14 14 14 15 15 15 17 19 21 23
39 39 38 38 38 37 35 33 33 32 32 32 32 33 34 37 38 39 38 37 35 33 31 30 29 28 27 28 27 26 25 24 22 20 20 20 19 18 16 16 16 17 16 16 15 15 14 14 14 13 13 12 12 12 12 12 12 12 13 14 13 13 14 14 15 15 16 16 17 18 20 22 24 25
41 42 41 39 37 37 35 34 34 34 34 34 34 34 35 36 39 42 42 41 39 36 34 33 32 30 29 29 28 28 28 27 25 23 22 21 20 19 17 17 18 18 17 17 16 15 15 15 14 14 14 14 14 13 13 14 14 15 15 15 14 14 14 15 16 17 17 18 19 20 22 23 25 27
42 42 42 41 38 36 35 35 35 35 36 36 35 36 36 38 40 42 44 44 42 40 37 35 34 32 31 31 30 30 30 30 27 25 23 22 21 21 21 21 22 21 19 18 17 16 16 15 14 14 14 14 15 15 15 16 17 18 17 16 15 15 16 17 18 19 19 20 20 21 22 24 26 27
44 42 41 41 40 38 36 36 37 37 37 37 37 37 38 40 41 42 45 46 45 42 39 37 36 35 34 33 32 32 32 30 26 25 25 25 25 25 26 26 25 22 20 20 20 18 17 17 16 16 16 16 17 17 18 19 19 19 18 16 16 17 17 18 19 20 21 21 22 23 23 24 25 27
48 44 43 42 42 42 41 40 39 39 39 39 38 38 40 41 41 42 44 46 46 44 42 39 38 38 36 35 34 33 31 29 27 28 29 29 28 28 30 30 28 24 22 23 23 22 22 21 20 18 17 18 20 20 20 20 20 19 17 17 18 19 19 20 21 22 23 23 24 24 24 24 26 27
52 48 46 45 44 45 45 45 44 42 42 41 40 41 42 42 42 42 43 45 46 46 44 42 41 40 38 36 35 34 32 31 32 32 32 31 30 31 33 32 30 27 26 27 28 28 27 25 22 19 18 20 22 21 20 21 20 18 18 18 19 20 21 22 23 24 25 25 26 26 25 25 26 27
57 53 50 49 47 47 48 48 47 46 46 45 43 43 44 44 43 43 43 45 47 47 47 45 44 42 40 38 38 36 35 36 35 34 34 34 33 33 34 34 33 31 31 33 33 32 32 28 22 20 20 23 24 22 22 22 21 20 20 20 22 23 24 24 25 25 27 27 28 28 27 27 27 28
60 58 56 52 50 49 50 50 50 50 50 50 48 48 47 46 46 45 45 45 47 48 48 47 46 44 42 41 41 39 38 38 38 37 37 37 35 35 35 35 35 34 36 39 37 35 36 32 25 22 23 25 26 26 25 25 25 24 24 24 25 26 27 28 28 28 28 29 30 30 30 30 30 30
63 62 60 57 54 53 53 54 54 53 53 53 53 52 51 50 48 47 47 47 48 49 49 48 46 44 43 44 44 43 42 41 41 40 40 39 38 37 36 36 37 39 41 43 41 37 38 37 30 25 27 29 29 29 29 29 30 29 29 29 29 30 30 31 31 31 31 32 33 33 32 32 32 31
66 65 63 62 60 57 55 55 56 56 56 57 57 56 55 53 51 50 50 49 49 50 50 50 48 46 46 46 46 46 47 46 45 43 42 42 42 41 41 41 43 45 44 45 43 39 37 38 36 31 31 33 33 32 32 33 33 33 33 33 33 33 33 33 33 33 34 35 35 35 35 34 34 33
70 68 66 65 64 62 59 59 59 59 59 60 60 60 59 58 55 54 53 52 52 53 53 52 51 51 50 49 48 49 51 50 48 47 47 47 46 46 46 46 47 47 45 45 45 41 37 39 39 36 36 37 36 35 34 34 34 35 36 36 36 35 35 35 36 36 36 37 37 37 36 36 35 35
72 71 69 67 65 64 65 65 63 61 61 63 63 63 62 61 60 57 56 56 56 56 56 56 55 54 53 52 52 52 52 52 51 51 52 52 51 49 49 48 47 47 46 46 46 43 40 40 41 41 41 42 40 38 37 37 37 38 39 39 39 38 37 37 38 38 39 39 39 38 38 37 37 36
69 68 68 68 67 66 67 68 68 65 64 64 65 65 65 64 63 61 60 59 59 57 57 57 57 56 54 54 55 54 52 51 52 53 54 53 52 52 51 50 48 47 48 48 47 45 43 42 42 43 45 46 43 41 40 40 41 41 41 41 41 40 40 40 40 41 41 42 42 41 41 40 39 39
67 66 65 66 66 66 66 67 68 69 68 65 65 66 66 65 65 64 63 63 62 60 59 58 57 57 56 55 56 55 54 53 53 55 54 53 53 55 54 52 49 49 50 50 49 48 45 43 43 44 47 48 46 44 43 43 43 43 42 42 43 43 43 43 43 43 43 44 44 44 43 43 43 43
69 68 66 64 63 64 65 65 66 70 70 67 64 65 66 66 65 65 65 65 65 64 62 61 59 58 57 56 57 57 58 57 57 58 57 55 55 57 56 53 51 52 52 50 50 50 48 46 46 47 48 49 48 47 47 46 44 44 43 43 44 45 46 46 46 46 46 46 47 46 45 45 46 46
70 68 67 65 63 63 63 63 65 68 71 69 64 62 62 64 66 67 68 67 68 67 66 65 63 61 61 60 59 59 60 60 60 61 60 58 58 59 57 56 55 54 52 50 52 53 51 51 52 51 51 51 50 49 49 48 48 47 46 45 46 47 48 49 48 47 48 49 49 48 47 46 47 48
72 70 68 66 66 65 64 62 61 63 67 70 69 66 62 62 65 70 71 70 70 71 69 68 67 65 64 63 62 61 61 60 61 62 60 57 58 59 59 58 57 55 52 51 54 57 57 57 57 56 55 55 52 51 51 51 50 49 49 49 48 47 49 50 50 50 50 50 50 50 49 49 49 48
71 71 71 69 68 69 68 66 63 61 61 65 69 70 68 64 64 70 73 72 72 72 70 70 70 68 67 66 65 64 63 62 63 63 60 57 58 59 59 59 58 56 53 52 55 59 61 62 62 61 60 58 55 54 55 54 53 52 52 50 48 48 50 52 52 52 52 52 53 53 52 51 51 49
67 68 70 70 69 71 72 71 70 67 63 63 65 67 69 66 62 65 71 74 73 73 72 71 70 70 69 68 67 66 65 64 65 65 63 60 60 61 61 60 59 58 56 55 58 61 63 64 64 64 63 61 58 57 56 55 54 55 54 52 51 51 52 53 54 54 54 55 56 54 54 54 53 51
64 64 65 66 68 70 72 73 74 73 68 65 63 64 67 67 62 60 65 70 74 75 74 72 70 69 69 69 69 68 67 67 67 67 66 64 63 63 62 59 58 59 59 59 61 64 66 67 66 65 63 62 60 58 56 54 53 54 56 56 56 55 56 57 57 55 55 56 56 55 55 55 54 54
61 61 62 64 65 68 70 73 75 76 72 68 66 64 65 69 66 60 58 62 68 73 74 73 70 69 69 69 69 68 69 70 69 69 69 67 65 64 62 59 57 58 58 59 61 64 66 67 67 65 63 62 62 61 58 57 56 56 58 60 60 61 62 63 61 58 57 58 58 56 56 57 56 57
58 58 59 61 63 65 69 71 73 74 74 72 71 67 65 67 66 60 56 56 59 64 68 71 70 68 67 68 69 69 69 70 70 70 70 70 66 64 64 62 60 58 58 59 61 61 61 62 64 65 65 66 65 64 62 60 58 57 59 60 62 65 66 66 65 63 61 59 59 60 61 60 60 60
57 56 55 56 58 61 66 68 69 71 72 74 74 71 68 67 65 61 56 55 55 56 59 64 68 68 67 68 69 70 70 70 70 70 71 71 68 66 66 67 64 60 58 59 61 60 58 59 61 64 66 68 67 65 64 62 59 57 58 58 60 62 63 65 66 66 63 60 59 61 62 62 61 61
53 53 51 51 52 54 59 64 66 67 69 71 73 73 70 68 67 64 60 58 56 54 54 57 62 65 67 69 70 70 70 70 70 70 71 71 70 68 69 70 68 62 58 58 59 60 59 59 60 62 64 66 65 64 64 63 61 59 59 58 59 60 61 64 65 64 62 59 58 59 61 61 61 60
48 50 50 50 49 49 52 57 60 63 66 68 69 71 71 70 68 67 64 61 59 57 55 56 57 59 63 67 69 69 70 71 70 70 71 71 71 71 71 71 69 65 61 60 60 61 60 59 60 60 61 62 62 62 63 63 62 61 61 61 60 58 56 57 58 58 56 55 55 57 59 59 59 59
45 47 48 49 48 48 49 52 55 59 63 65 66 67 68 69 68 65 63 62 60 59 57 56 55 55 58 63 66 68 69 70 70 70 69 70 70 71 71 71 70 69 66 63 62 62 62 60 59 59 60 61 60 60 62 61 60 59 60 60 59 54 48 47 49 53 53 54 55 56 55 53 53 53
41 42 43 45 46 47 48 49 50 52 55 60 63 65 65 65 65 64 62 61 59 57 56 55 54 54 54 58 62 65 66 67 68 69 69 69 69 70 70 70 70 70 69 66 63 63 63 63 62 61 61 61 61 61 61 59 59 60 60 59 56 53 49 48 51 54 55 54 52 50 48 47 46 45
38 39 39 40 41 44 46 46 46 46 47 51 56 60 62 62 62 62 62 60 58 56 55 55 55 55 54 54 58 63 65 65 65 65 66 67 68 69 70 70 69 69 69 68 66 65 65 65 65 64 63 63 63 62 59 57 59 62 61 57 53 51 51 51 51 52 50 48 45 44 43 43 42 41
35 37 37 37 38 41 44 45 45 46 48 49 50 52 55 58 59 58 58 58 57 57 57 56 56 55 54 53 55 59 64 66 66 65 65 65 66 68 69 70 70 70 70 69 67 67 67 66 65 64 64 63 62 61 59 58 58 59 59 55 50 46 46 45 44 43 41 40 41 41 41 40 39 40
34 36 36 37 39 41 44 46 46 47 49 51 51 49 51 55 56 56 57 57 57 58 59 59 58 57 55 54 54 56 61 64 66 67 66 66 66 67 68 69 69 69 68 68 67 67 68 67 65 64 64 63 62 61 60 57 54 52 53 51 46 43 43 42 41 39 39 40 40 40 40 40 39 39
35 36 36 37 39 41 43 46 48 49 50 51 52 52 52 54 56 58 58 58 58 58 59 60 59 58 57 56 56 57 59 62 64 66 67 68 68 68 68 69 70 69 68 66 66 67 69 68 66 65 64 64 64 63 61 57 51 47 45 45 44 43 44 43 40 39 39 40 40 40 41 42 41 39
32 34 36 37 38 40 42 44 47 48 49 50 52 53 54 55 57 58 59 59 59 58 58 58 58 57 56 57 58 59 60 62 63 65 66 67 67 68 69 70 70 71 71 69 67 68 70 70 68 66 65 64 65 64 62 57 51 46 44 45 47 48 48 47 45 44 44 44 45 44 44 44 42 41
32 33 34 35 37 39 42 44 45 46 47 48 48 50 51 53 54 56 57 58 57 57 57 58 57 57 57 57 58 60 62 63 64 64 65 65 64 65 66 68 69 69 70 70 69 68 68 68 69 69 68 67 66 66 64 61 55 52 52 52 50 50 50 50 51 51 50 48 48 48 47 46 46 44
29 33 35 37 37 38 40 42 43 44 45 46 46 47 48 50 51 52 53 54 54 54 56 56 56 56 57 58 59 60 62 63 64 64 65 65 63 62 63 65 67 68 69 70 71 70 69 68 68 69 69 69 68 67 65 63 60 59 60 57 54 52 53 53 53 54 53 51 51 51 51 49 47 45
22 27 31 35 37 39 39 40 41 42 43 44 45 46 47 48 49 50 50 50 50 52 54 56 56 55 55 55 56 58 59 60 61 61 62 63 63 62 62 63 64 66 67 68 70 71 71 72 73 73 73 74 73 72 70 68 67 67 67 63 59 56 56 56 56 57 56 54 53 52 51 50 49 49
22 24 26 30 32 35 37 39 40 41 42 43 44 45 46 47 48 49 49 50 50 51 54 56 57 56 54 53 52 52 53 55 57 58 59 60 60 60 61 61 62 64 66 67 69 70 71 73 75 76 77 77 78 78 77 76 75 73 70 66 63 60 59 59 59 59 58 57 54 53 53 54 54 54
19 21 23 26 28 30 32 34 36 39 40 42 44 45 46 46 47 48 50 51 51 51 52 53 55 56 56 55 54 53 52 53 54 56 58 60 60 60 58 58 58 60 62 65 67 69 70 72 73 74 75 75 76 76 76 76 75 73 70 67 66 64 62 61 60 59 59 58 57 57 58 59 59 58
Wind_Direction
224 222 222 220 217 216 215 218 223 222 218 216 215 213 214 215 212 210 213 213 214 221 227 231 236 242 245 245 248 250 243 231 221 212 208 206 201 198 197 201 209 215 226 242 251 254 251 254 263 276 288 300 311 320 328 333 335 336 338 339 339 339 337 337 337 337 338 340 342 345 349 354 357 359
222 218 218 218 218 217 216 218 220 220 219 218 218 216 216 219 217 214 216 217 216 220 226 233 236 236 239 240 239 243 241 229 214 202 198 200 201 202 202 205 213 225 238 248 256 264 269 273 276 286 295 303 310 318 326 331 334 336 338 339 341 341 339 337 336 335 334 335 336 339 341 344 348 350
216 213 214 218 222 223 221 219 219 220 220 221 222 221 218 221 222 221 221 221 219 220 225 232 235 234 236 237 234 235 238 234 223 213 208 210 216 221 224 226 228 236 246 256 265 270 272 275 279 285 293 300 307 315 321 326 330 332 334 335 337 338 337 336 335 334 332 332 332 334 336 339 342 344
207 206 211 219 226 229 228 223 221 221 222 223 225 225 221 220 223 225 226 225 224 223 226 230 233 234 235 237 234 233 234 235 231 227 226 228 234 240 244 246 247 248 252 257 263 267 268 269 270 275 284 294 301 308 315 321 328 330 330 332 334 335 334 334 334 335 333 332 331 331 333 336 338 341
205 204 210 217 223 228 229 228 226 226 227 227 228 228 225 221 222 225 226 226 227 228 228 229 231 234 235 237 236 234 232 234 235 236 236 237 240 244 249 253 254 254 255 257 259 262 263 260 260 265 274 284 292 299 309 319 328 331 332 334 335 336 335 334 334 335 334 333 331 330 332 335 337 339
207 205 208 214 219 223 225 227 228 229 232 233 233 232 230 225 222 224 225 226 228 230 230 229 230 233 235 236 238 237 235 235 238 240 240 240 242 244 247 251 254 256 257 257 259 260 259 255 255 261 271 280 283 287 299 313 324 331 335 337 336 336 336 334 334 334 334 333 331 331 333 336 339 339
216 212 211 213 218 222 223 225 228 231 233 234 235 236 236 233 228 226 226 227 229 230 231 231 232 234 235 236 238 240 239 238 239 242 244 245 245 246 247 248 252 257 259 260 260 259 257 255 255 261 271 280 280 278 285 299 312 324 332 334 334 335 335 334 334 333 333 332 332 332 333 337 339 340
222 220 217 216 218 221 224 226 228 232 235 237 237 237 238 238 236 233 230 229 230 231 232 233 234 235 236 238 240 243 244 241 240 243 247 248 248 249 252 254 255 256 259 261 261 260 258 256 256 262 272 279 280 278 280 289 302 316 324 327 329 331 331 332 332 332 333 332 330 329 330 333 335 336
225 225 224 222 220 221 223 225 228 231 236 239 241 240 238 238 239 239 237 233 231 232 233 233 234 235 237 240 243 245 246 244 242 243 247 250 251 253 256 259 258 257 256 257 257 258 259 259 260 264 271 276 278 279 282 288 299 310 316 319 321 324 325 325 326 327 328 328 327 326 327 328 330 332
230 230 229 229 228 225 224 225 227 230 233 238 242 244 244 241 239 239 239 237 234 232 232 234 234 234 236 239 242 244 246 247 246 245 247 252 257 258 257 257 258 257 256 255 255 256 258 261 264 267 270 273 277 281 285 290 297 305 309 310 312 314 316 317 318 319 321 321 322 323 324 326 327 329
235 234 234 236 236 234 232 230 229 230 232 235 239 243 246 247 245 241 239 239 237 234 232 234 235 235 235 237 239 242 245 248 249 250 252 254 257 257 255 253 252 254 255 256 257 257 259 261 263 266 269 273 277 281 286 291 294 299 302 303 303 305 307 309 311 312 314 315 317 320 323 325 327 327
237 234 234 237 238 237 237 236 234 233 233 234 237 240 243 247 249 247 241 238 238 238 235 235 235 235 235 236 237 240 244 248 251 252 251 248 248 250 252 252 252 253 253 255 257 257 259 260 261 263 270 276 280 283 286 288 290 292 295 295 296 299 302 304 305 306 308 310 313 316 320 323 324 325
240 237 233 234 236 236 236 239 239 238 236 236 236 238 241 244 248 250 245 238 236 238 239 238 237 237 236 236 238 240 243 246 248 247 247 246 246 247 250 253 255 254 251 252 255 255 255 256 257 262 270 276 280 283 284 284 285 287 288 289 292 296 299 301 301 302 304 306 309 312 315 318 320 321
241 240 237 234 234 234 234 236 239 241 241 239 237 237 240 242 245 247 245 238 235 236 238 239 240 240 239 239 239 241 241 242 243 244 247 249 247 247 248 252 256 256 253 253 254 254 254 254 256 263 269 273 277 280 280 280 281 282 281 283 289 293 296 297 298 299 301 302 304 307 310 312 315 318
239 240 240 239 237 237 237 236 237 240 242 242 241 239 240 241 243 244 243 239 236 236 238 239 240 241 242 242 242 241 241 241 242 244 246 248 249 250 251 253 255 255 255 255 254 255 257 257 257 261 266 270 274 276 277 279 280 279 279 281 285 289 292 293 294 295 297 298 300 301 304 306 310 313
238 239 240 240 238 238 240 240 239 240 241 242 242 241 240 241 242 243 243 240 238 238 239 239 241 242 243 244 244 244 243 243 244 244 245 247 249 251 252 254 255 255 255 255 255 258 263 264 260 257 261 266 269 270 272 277 280 280 280 281 282 285 287 289 290 292 293 294 295 296 299 302 304 308
238 238 239 240 237 236 239 241 241 241 241 242 243 242 241 242 242 242 243 242 241 240 241 241 242 243 244 244 245 245 245 244 244 244 245 246 247 249 251 253 253 252 251 253 255 257 265 271 269 260 261 265 266 266 267 270 274 277 279 281 282 284 285 286 288 289 290 291 292 293 295 297 300 303
238 238 239 240 239 237 238 240 241 242 242 242 243 243 242 242 242 242 242 242 243 242 242 243 243 244 245 246 246 246 247 246 245 246 246 246 245 245 246 247 248 249 249 252 255 256 261 269 270 266 263 263 264 266 268 269 271 274 276 278 280 282 284 285 286 287 288 288 289 290 293 295 297 299
239 239 239 240 239 239 240 240 241 243 244 243 242 243 243 242 242 241 241 241 242 242 241 242 242 242 243 245 246 246 247 247 246 246 247 246 245 244 244 245 248 251 253 253 255 256 257 262 266 267 264 263 264 267 268 270 272 273 274 275 277 278 280 282 283 284 285 286 287 289 291 292 294 296
240 240 240 239 238 239 241 240 239 241 244 243 241 241 242 243 242 242 242 241 240 241 242 241 241 241 242 243 244 244 246 246 246 245 245 246 247 248 249 250 252 255 256 257 257 257 254 256 260 263 262 262 264 266 269 271 272 272 272 273 274 275 277 279 281 282 283 285 286 288 289 290 291 292
239 240 240 239 238 238 240 241 240 241 242 243 240 239 240 242 242 242 242 242 242 242 243 243 242 242 243 245 245 245 246 247 247 247 246 246 248 250 252 253 254 257 258 259 259 258 255 254 256 259 261 262 262 264 268 270 270 269 271 272 274 276 277 278 280 281 282 284 286 287 288 289 290 289
239 239 240 239 237 237 237 239 241 241 241 242 241 238 238 240 242 242 242 243 243 243 243 243 243 242 243 244 246 247 248 248 248 249 249 247 247 249 251 252 254 256 256 257 259 260 259 256 254 255 259 261 261 261 262 264 265 266 268 272 275 277 278 279 280 281 282 284 285 286 288 289 290 290
238 238 238 237 235 235 236 236 238 240 240 240 240 239 237 238 240 242 242 242 243 244 244 244 244 244 243 244 244 245 246 248 249 250 249 248 248 250 252 253 253 254 254 256 258 260 259 256 254 253 254 257 258 258 258 259 261 262 265 268 271 274 276 278 280 281 283 284 284 286 287 289 290 290
238 238 238 237 236 236 237 236 237 239 239 238 240 242 240 240 241 241 241 242 242 243 244 243 243 244 244 244 243 243 243 245 247 249 249 248 249 251 252 253 253 254 253 253 255 257 257 255 254 254 254 256 257 257 258 257 257 259 262 265 267 271 274 277 279 280 281 283 285 287 288 288 288 289
237 237 237 237 237 237 237 236 238 241 240 238 239 242 243 244 245 243 241 241 241 241 243 244 244 243 244 244 244 244 244 244 246 248 249 248 249 250 252 253 254 254 254 252 252 254 254 253 254 254 255 255 256 257 258 258 257 259 262 263 265 269 273 275 277 279 281 283 285 287 288 288 288 289
235 236 236 236 236 236 237 236 237 240 240 237 237 239 240 242 245 245 242 242 242 242 243 244 244 245 245 245 245 246 246 246 247 248 249 248 249 251 252 252 253 254 255 253 252 253 253 252 252 253 254 254 253 254 255 256 257 259 261 264 266 267 270 273 275 278 281 282 283 285 286 287 287 289
236 235 236 236 235 235 236 236 237 239 240 238 237 238 238 239 245 246 243 242 242 242 243 243 244 245 245 246 246 247 248 248 249 250 250 248 248 249 250 251 252 255 255 254 252 252 252 252 251 251 253 255 256 256 256 257 257 258 260 262 263 264 266 269 271 274 277 278 280 281 282 283 284 285
237 236 236 236 237 235 235 235 236 238 240 240 239 239 237 238 244 249 246 243 242 242 243 243 244 245 247 247 247 248 248 249 250 251 251 250 249 249 250 251 253 256 258 258 257 256 254 252 250 250 252 256 258 259 260 261 261 260 258 258 258 260 262 264 265 268 271 274 277 279 279 279 280 282
237 237 237 237 238 238 237 236 235 236 239 241 241 240 238 237 242 248 249 246 244 243 243 244 245 246 248 249 250 249 248 249 250 251 251 252 252 252 252 253 254 256 259 261 262 262 259 254 250 249 252 256 259 261 262 262 261 259 258 258 258 259 261 262 263 265 268 270 272 275 277 278 279 280
235 235 237 239 240 241 241 240 239 237 237 239 240 240 239 238 240 245 248 249 247 245 243 243 244 246 248 249 251 252 251 250 250 250 252 253 253 254 254 253 253 254 257 259 261 263 262 257 252 249 251 255 258 260 263 265 264 263 262 262 261 262 264 265 265 266 267 268 269 271 273 276 278 280
236 235 236 238 239 240 240 241 241 241 239 239 239 240 239 238 238 241 245 248 249 249 247 245 244 245 247 248 250 251 252 252 251 251 252 253 253 254 254 254 252 251 253 256 259 262 262 258 254 251 252 254 256 258 261 265 266 267 267 266 266 266 268 268 267 266 266 267 269 270 271 274 277 278
239 240 240 240 242 243 243 243 243 243 241 240 240 240 239 238 238 240 242 246 249 251 251 250 248 247 247 249 249 250 251 252 253 253 253 253 254 254 254 254 253 252 252 255 258 260 261 259 257 256 255 255 255 255 258 261 263 266 268 269 270 269 270 270 269 267 265 265 268 271 272 275 277 275
239 241 242 243 245 247 247 246 246 246 244 242 240 240 239 239 239 240 241 244 248 249 250 251 251 250 249 249 249 250 251 251 252 253 254 254 254 254 254 255 256 254 253 254 256 258 259 259 259 260 260 259 257 258 260 262 263 265 268 270 271 270 271 271 268 264 263 266 269 273 274 276 276 273
238 239 241 243 245 246 246 245 246 246 246 245 244 242 240 240 241 241 242 244 247 248 249 249 251 252 253 252 250 250 250 251 252 253 253 253 253 254 254 255 256 255 254 253 255 257 258 259 260 260 261 260 260 261 263 264 265 266 268 270 270 269 270 273 269 265 266 269 271 273 274 275 274 271
237 237 238 240 242 243 242 240 241 243 244 244 244 242 240 240 240 240 241 243 245 247 248 248 249 252 255 254 252 250 250 250 252 253 253 253 252 253 254 254 255 255 254 254 255 257 258 258 259 259 259 260 261 262 263 265 268 268 268 271 271 267 267 272 271 268 268 269 271 274 274 273 273 271
235 235 235 235 237 238 239 238 237 237 238 239 240 238 237 237 238 239 240 242 244 245 246 247 249 251 254 254 252 250 249 249 250 252 254 254 253 252 253 253 254 255 255 254 255 257 257 257 257 258 259 260 262 264 265 267 269 270 270 272 272 267 265 268 270 269 268 268 269 272 272 271 271 271
237 234 233 233 233 234 237 237 235 234 235 237 239 238 236 236 237 239 240 242 243 244 245 246 248 251 252 252 252 251 250 249 249 250 252 254 254 253 253 253 254 255 255 254 254 255 257 257 257 258 260 261 263 266 267 267 268 269 267 267 268 266 265 269 273 273 272 271 269 270 271 272 270 269
240 237 234 234 233 234 235 235 235 235 235 238 241 241 238 237 238 240 242 242 243 244 245 246 247 250 252 252 252 252 251 251 251 251 251 252 253 254 254 254 255 256 256 254 253 253 256 258 258 259 261 262 263 266 266 264 262 261 260 261 264 267 269 273 275 273 272 273 272 271 271 272 270 267
243 241 238 236 235 235 236 236 237 238 238 240 242 243 241 240 239 240 242 243 244 244 245 246 248 250 252 252 252 251 251 252 252 253 253 253 253 253 254 255 255 256 256 256 254 254 257 259 259 259 259 259 260 263 263 260 255 254 257 261 265 268 271 272 272 270 271 273 274 272 271 270 269 269
244 244 244 242 240 239 238 237 237 239 240 241 242 243 243 242 242 242 243 244 245 245 245 247 249 250 251 252 252 251 250 250 252 253 254 254 253 253 253 254 255 256 257 257 256 256 257 258 259 259 259 258 258 259 259 256 253 255 262 267 268 268 269 269 269 269 270 272 273 273 271 271 272 273
243 243 245 247 247 245 243 241 240 240 240 241 242 242 243 243 243 243 244 245 246 247 248 249 250 251 252 253 253 252 251 251 251 252 253 253 254 253 253 253 253 255 256 255 254 255 256 257 258 258 259 258 258 257 256 254 254 260 267 270 267 266 267 267 267 268 268 270 271 271 271 272 274 274
249 247 247 249 252 252 249 247 246 245 244 244 245 245 245 245 244 244 245 246 248 249 250 251 252 253 253 254 254 254 253 253 252 252 252 252 253 254 253 253 252 252 253 254 253 252 253 254 255 256 256 256 255 255 254 253 255 262 269 269 266 265 265 265 265 266 267 268 269 271 272 273 273 272
251 249 249 251 255 258 257 254 253 252 252 251 251 251 252 251 251 250 249 248 249 250 250 251 251 252 253 254 255 255 254 254 253 253 253 253 254 255 255 254 253 253 253 253 253 253 253 252 253 254 255 256 257 258 258 258 260 265 268 268 265 265 265 266 266 266 267 268 270 270 270 270 271 272
250 250 251 252 254 257 257 256 256 256 256 256 255 255 255 255 255 254 253 252 252 253 253 252 252 252 254 255 256 256 255 255 254 254 254 254 255 256 257 256 256 255 255 254 253 253 253 254 254 255 256 257 259 261 263 264 265 266 266 265 264 265 266 267 267 266 266 267 267 267 267 268 270 272
257 255 255 255 255 256 256 256 255 255 255 255 256 256 256 255 255 254 254 254 254 255 255 254 254 254 255 256 257 258 258 258 258 257 257 257 258 259 260 259 258 257 256 256 255 254 254 254 255 256 256 257 259 260 262 263 264 265 265 264 264 264 266 267 267 266 266 267 267 268 268 270 271 271
Height
5811 5812 5815 5819 5820 5819 5819 5821 5823 5825 5827 5829 5831 5832 5833 5835 5836 5837 5837 5838 5838 5839 5840 5840 5841 5842 5842 5842 5842 5842 5842 5842 5842 5842 5842 5842 5843 5843 5843 5843 5843 5844 5844 5843 5843 5843 5842 5842 5841 5841 5841 5840 5840 5840 5839 5839 5838 5838 5837 5837 5836 5835 5835 5834 5833 5832 5831 5830 5829 5827 5826 5825 5823 5822
5808 5808 5811 5815 5818 5818 5818 5818 5820 5822 5824 5826 5828 5830 5831 5833 5834 5835 5835 5836 5837 5838 5838 5839 5839 5840 5841 5841 5841 5841 5841 5841 5841 5841 5841 5842 5842 5842 5842 5842 5843 5843 5843 5842 5842 5842 5841 5841 5841 5840 5840 5840 5839 5839 5838 5837 5837 5837 5836 5836 5835 5834 5834 5833 5832 5831 5830 5829 5827 5826 5825 5824 5823 5821
5804 5804 5807 5812 5816 5817 5816 5816 5817 5819 5821 5823 5825 5827 5828 5830 5831 5832 5834 5835 5835 5836 5837 5837 5838 5839 5839 5840 5840 5839 5840 5840 5840 5840 5840 5841 5841 5842 5842 5842 5842 5842 5841 5841 5841 5841 5840 5840 5840 5840 5839 5839 5838 5838 5837 5836 5835 5835 5835 5834 5834 5833 5833 5832 5831 5830 5828 5827 5826 5825 5824 5823 5821 5820
5799 5801 5804 5808 5813 5814 5814 5814 5815 5816 5818 5820 5821 5823 5825 5827 5828 5830 5831 5833 5833 5834 5835 5836 5836 5837 5837 5838 5838 5838 5838 5839 5839 5839 5839 5839 5840 5840 5841 5841 5841 5840 5840 5840 5840 5840 5839 5839 5839 5839 5838 5838 5837 5836 5836 5835 5834 5834 5833 5832 5832 5831 5831 5830 5829 5828 5827 5826 5825 5824 5822 5821 5820 5819
5794 5796 5799 5804 5807 5810 5811 5812 5812 5814 5815 5817 5818 5820 5822 5824 5825 5826 5828 5830 5831 5831 5832 5833 5834 5835 5836 5836 5836 5837 5837 5837 5837 5838 5838 5838 5838 5839 5839 5839 5839 5839 5839 5838 5838 5838 5838 5838 5838 5838 5838 5837 5836 5835 5835 5834 5833 5833 5832 5831 5830 5830 5829 5829 5828 5827 5826 5825 5824 5823 5821 5820 5819 5817
5789 5790 5794 5798 5802 5804 5806 5807 5809 5811 5812 5814 5815 5817 5819 5821 5822 5823 5825 5826 5827 5829 5830 5830 5831 5832 5833 5834 5834 5834 5835 5835 5836 5836 5836 5836 5836 5837 5837 5837 5837 5837 5837 5837 5836 5836 5836 5836 5836 5836 5836 5836 5835 5834 5833 5833 5832 5832 5831 5830 5829 5828 5828 5827 5826 5825 5824 5823 5822 5821 5820 5819 5817 5816
5788 5788 5789 5793 5797 5799 5801 5803 5805 5807 5808 5810 5812 5814 5815 5817 5819 5820 5821 5823 5824 5825 5826 5827 5828 5829 5830 5831 5831 5832 5833 5834 5834 5835 5835 5835 5835 5835 5835 5835 5835 5835 5835 5835 5835 5835 5834 5834 5834 5835 5834 5834 5834 5833 5832 5832 5831 5830 5830 5829 5828 5827 5826 5826 5825 5824 5823 5822 5821 5820 5819 5817 5816 5814
5787 5787 5788 5790 5792 5794 5797 5799 5800 5802 5804 5806 5809 5810 5812 5813 5815 5816 5818 5819 5821 5821 5823 5824 5825 5826 5826 5827 5828 5829 5830 5831 5832 5832 5833 5833 5833 5833 5833 5833 5833 5833 5833 5833 5833 5833 5832 5832 5833 5833 5833 5832 5832 5832 5831 5831 5830 5829 5828 5827 5827 5826 5825 5824 5823 5822 5821 5820 5819 5818 5817 5816 5814 5813
5784 5786 5787 5788 5788 5789 5792 5794 5796 5798 5800 5801 5804 5806 5808 5809 5811 5811 5813 5815 5817 5818 5819 5821 5822 5823 5824 5824 5825 5826 5827 5828 5829 5830 5830 5831 5831 5831 5831 5831 5830 5830 5831 5830 5830 5830 5830 5830 5831 5831 5831 5831 5830 5830 5830 5829 5829 5828 5827 5826 5825 5825 5824 5823 5822 5820 5819 5818 5817 5816 5815 5814 5812 5810
5781 5783 5785 5786 5786 5786 5788 5790 5792 5794 5795 5797 5799 5801 5803 5805 5806 5807 5808 5810 5812 5814 5816 5817 5818 5820 5821 5821 5822 5823 5823 5824 5825 5827 5827 5828 5829 5829 5829 5829 5828 5827 5828 5828 5828 5828 5828 5828 5828 5829 5829 5829 5828 5828 5828 5828 5827 5826 5826 5825 5824 5823 5822 5821 5820 5819 5818 5816 5815 5814 5813 5811 5810 5808
5777 5779 5781 5782 5783 5784 5785 5786 5787 5789 5791 5793 5795 5797 5799 5800 5801 5802 5803 5804 5806 5809 5811 5813 5814 5816 5818 5818 5819 5819 5819 5820 5822 5824 5825 5826 5826 5826 5826 5825 5825 5825 5825 5825 5826 5826 5826 5826 5826 5826 5826 5826 5826 5826 5826 5825 5825 5824 5824 5823 5822 5821 5820 5820 5818 5817 5816 5814 5813 5812 5811 5809 5807 5805
5772 5774 5775 5776 5778 5779 5781 5782 5783 5784 5786 5788 5790 5792 5794 5795 5796 5798 5799 5800 5801 5803 5806 5808 5810 5812 5813 5814 5815 5816 5816 5818 5820 5821 5821 5821 5822 5822 5822 5822 5822 5822 5823 5823 5823 5823 5823 5823 5823 5824 5824 5824 5824 5823 5823 5823 5822 5822 5821 5821 5820 5819 5819 5818 5817 5815 5814 5812 5811 5810 5808 5807 5805 5803
5766 5768 5769 5770 5771 5773 5775 5777 5778 5780 5781 5783 5785 5787 5788 5789 5791 5793 5794 5795 5796 5798 5800 5803 5805 5807 5809 5811 5812 5813 5814 5816 5817 5816 5816 5817 5818 5818 5818 5818 5819 5820 5820 5820 5820 5820 5820 5820 5820 5821 5821 5821 5821 5821 5821 5820 5819 5819 5819 5818 5818 5817 5816 5816 5814 5813 5812 5810 5809 5807 5806 5804 5802 5800
5760 5762 5764 5765 5766 5766 5768 5770 5772 5775 5776 5778 5780 5781 5782 5783 5785 5787 5788 5790 5791 5793 5795 5798 5800 5801 5804 5807 5809 5810 5812 5812 5812 5812 5812 5814 5814 5814 5814 5815 5816 5817 5817 5817 5816 5816 5816 5816 5817 5818 5819 5818 5818 5818 5818 5817 5817 5816 5816 5815 5815 5814 5814 5813 5812 5810 5809 5808 5806 5805 5803 5802 5800 5798
5753 5756 5758 5760 5761 5762 5763 5765 5767 5769 5771 5772 5774 5775 5776 5778 5780 5781 5783 5785 5786 5787 5789 5791 5793 5796 5799 5802 5804 5806 5807 5807 5807 5808 5809 5809 5810 5811 5811 5812 5813 5813 5813 5812 5812 5812 5812 5813 5815 5815 5815 5815 5814 5815 5814 5813 5813 5813 5813 5812 5812 5811 5811 5810 5809 5807 5806 5804 5803 5802 5800 5799 5797 5795
5746 5749 5751 5753 5755 5757 5758 5760 5762 5764 5765 5767 5768 5769 5770 5772 5774 5776 5778 5780 5781 5782 5783 5785 5787 5791 5795 5797 5798 5801 5803 5803 5803 5803 5803 5804 5806 5806 5807 5808 5810 5810 5808 5806 5808 5809 5809 5810 5813 5813 5812 5811 5810 5810 5811 5810 5810 5810 5809 5809 5808 5807 5807 5806 5805 5804 5802 5801 5800 5798 5797 5795 5793 5791
5739 5741 5743 5745 5748 5750 5751 5753 5755 5758 5759 5761 5762 5763 5764 5766 5768 5770 5773 5775 5776 5777 5778 5779 5781 5785 5789 5791 5793 5796 5797 5797 5797 5798 5799 5800 5800 5801 5803 5804 5804 5803 5801 5800 5802 5806 5807 5808 5810 5811 5809 5807 5806 5806 5806 5806 5806 5806 5805 5805 5804 5803 5802 5802 5801 5800 5798 5797 5796 5794 5793 5791 5790 5788
5729 5733 5735 5737 5740 5743 5745 5747 5749 5751 5753 5755 5756 5758 5759 5760 5762 5764 5767 5769 5771 5772 5772 5773 5776 5780 5782 5784 5787 5789 5789 5790 5792 5793 5794 5794 5794 5794 5795 5795 5794 5795 5796 5796 5797 5801 5804 5804 5806 5808 5807 5803 5802 5802 5802 5802 5801 5801 5800 5800 5799 5799 5798 5797 5796 5795 5794 5793 5791 5790 5789 5787 5786 5784
5719 5723 5726 5728 5732 5735 5737 5739 5741 5743 5746 5748 5749 5751 5752 5754 5755 5757 5760 5763 5765 5765 5766 5768 5770 5772 5775 5777 5779 5781 5781 5782 5785 5787 5788 5787 5787 5787 5786 5787 5788 5790 5793 5793 5793 5796 5800 5800 5800 5803 5802 5800 5798 5798 5798 5797 5797 5796 5795 5794 5794 5794 5793 5792 5791 5790 5789 5788 5786 5785 5784 5783 5781 5780
5709 5712 5716 5719 5723 5725 5727 5729 5731 5734 5737 5739 5741 5743 5745 5747 5749 5751 5753 5755 5757 5759 5760 5762 5764 5767 5769 5770 5771 5772 5772 5774 5777 5778 5778 5779 5780 5781 5782 5783 5785 5786 5787 5788 5789 5791 5794 5794 5794 5796 5795 5795 5795 5795 5794 5793 5793 5791 5790 5789 5788 5788 5788 5787 5786 5785 5784 5782 5781 5780 5779 5778 5777 5775
5701 5703 5706 5710 5713 5716 5718 5720 5722 5725 5727 5729 5732 5734 5737 5740 5742 5744 5746 5748 5751 5753 5754 5756 5759 5762 5764 5764 5764 5765 5766 5767 5768 5768 5768 5772 5775 5775 5775 5777 5780 5781 5782 5782 5783 5785 5787 5788 5788 5789 5788 5788 5790 5791 5790 5789 5788 5787 5786 5784 5783 5783 5782 5781 5781 5779 5778 5778 5777 5776 5774 5773 5772 5770
5692 5695 5697 5700 5704 5706 5709 5710 5713 5716 5718 5721 5723 5725 5728 5732 5735 5737 5739 5740 5743 5746 5748 5749 5751 5754 5756 5757 5758 5760 5761 5761 5760 5758 5760 5765 5767 5766 5767 5771 5775 5775 5774 5776 5778 5778 5781 5783 5782 5782 5781 5781 5784 5785 5784 5783 5782 5782 5781 5780 5779 5778 5777 5776 5775 5774 5773 5773 5772 5771 5770 5769 5767 5765
5681 5685 5689 5692 5695 5698 5700 5701 5703 5705 5708 5711 5715 5717 5720 5724 5728 5730 5731 5732 5735 5737 5739 5742 5744 5746 5749 5750 5751 5753 5754 5754 5752 5750 5754 5759 5760 5759 5762 5766 5768 5766 5767 5772 5773 5771 5775 5777 5775 5774 5774 5774 5777 5778 5777 5777 5776 5776 5776 5775 5774 5773 5772 5770 5770 5769 5769 5768 5767 5766 5765 5764 5762 5759
5672 5676 5680 5684 5688 5691 5693 5694 5695 5696 5700 5705 5708 5711 5714 5718 5722 5722 5722 5725 5727 5727 5728 5732 5735 5738 5740 5741 5742 5744 5745 5746 5745 5744 5749 5754 5753 5753 5756 5759 5760 5759 5762 5767 5767 5764 5766 5768 5767 5766 5767 5767 5770 5772 5771 5770 5770 5769 5769 5769 5768 5768 5766 5765 5765 5765 5763 5762 5761 5761 5760 5759 5757 5755
5662 5667 5672 5676 5680 5683 5685 5687 5688 5688 5692 5697 5700 5703 5708 5712 5713 5713 5714 5717 5717 5717 5719 5722 5724 5728 5731 5733 5735 5736 5738 5739 5737 5737 5742 5747 5747 5746 5749 5751 5752 5753 5756 5760 5759 5756 5756 5757 5757 5758 5758 5758 5762 5765 5764 5764 5764 5764 5763 5762 5762 5763 5761 5760 5760 5760 5759 5758 5756 5755 5754 5753 5751 5750
5655 5660 5663 5666 5670 5672 5675 5678 5680 5681 5683 5687 5690 5694 5699 5702 5702 5702 5705 5708 5708 5709 5712 5713 5715 5719 5722 5724 5727 5730 5732 5733 5731 5730 5734 5739 5739 5739 5741 5743 5744 5745 5748 5751 5750 5747 5746 5746 5746 5748 5748 5749 5753 5755 5755 5756 5758 5758 5757 5756 5757 5757 5756 5755 5756 5756 5755 5753 5751 5749 5748 5747 5745 5744
5650 5653 5655 5657 5659 5662 5665 5668 5671 5674 5676 5679 5683 5687 5691 5693 5694 5694 5696 5698 5700 5701 5703 5704 5706 5710 5713 5716 5719 5722 5725 5727 5726 5724 5727 5730 5730 5730 5730 5733 5734 5736 5739 5741 5739 5736 5735 5736 5737 5738 5739 5741 5743 5744 5746 5749 5751 5752 5752 5752 5751 5750 5749 5749 5749 5750 5749 5747 5745 5744 5742 5740 5739 5737
5643 5645 5646 5648 5650 5652 5655 5659 5662 5665 5668 5672 5677 5681 5684 5686 5687 5688 5688 5690 5691 5692 5694 5696 5699 5702 5705 5708 5711 5714 5716 5718 5718 5718 5718 5720 5721 5721 5722 5726 5729 5730 5731 5732 5731 5730 5729 5729 5730 5731 5732 5733 5734 5735 5738 5742 5745 5745 5745 5744 5742 5742 5742 5740 5740 5742 5742 5740 5739 5738 5735 5733 5732 5730
5635 5637 5639 5641 5642 5644 5646 5649 5652 5656 5661 5665 5669 5673 5675 5677 5679 5681 5682 5682 5682 5683 5686 5689 5692 5695 5697 5699 5701 5703 5706 5707 5709 5710 5710 5711 5714 5716 5717 5721 5724 5724 5725 5724 5724 5723 5723 5723 5725 5726 5726 5726 5725 5726 5730 5733 5736 5737 5736 5735 5735 5734 5733 5732 5733 5734 5734 5732 5732 5732 5729 5727 5726 5724
5627 5630 5633 5635 5637 5639 5641 5643 5645 5649 5654 5658 5661 5664 5667 5669 5672 5674 5675 5675 5676 5677 5679 5681 5683 5686 5689 5691 5692 5693 5695 5698 5701 5703 5702 5704 5707 5710 5710 5711 5713 5716 5716 5715 5713 5714 5716 5717 5719 5719 5719 5718 5717 5719 5721 5723 5726 5728 5728 5728 5728 5727 5726 5726 5727 5727 5726 5726 5726 5724 5722 5721 5720 5718
5621 5623 5625 5627 5630 5632 5635 5637 5640 5644 5648 5650 5653 5656 5659 5662 5664 5666 5667 5669 5670 5671 5674 5675 5676 5678 5679 5680 5682 5684 5686 5690 5692 5694 5694 5696 5699 5701 5700 5698 5701 5705 5707 5706 5705 5705 5707 5709 5710 5711 5710 5709 5710 5713 5714 5714 5715 5717 5718 5718 5718 5719 5719 5718 5718 5719 5719 5719 5718 5715 5714 5714 5714 5712
5616 5618 5619 5621 5624 5626 5629 5632 5635 5638 5641 5643 5646 5648 5651 5654 5656 5658 5660 5663 5664 5666 5668 5668 5668 5669 5670 5671 5673 5676 5678 5681 5684 5685 5685 5687 5690 5692 5689 5688 5691 5697 5700 5699 5698 5699 5700 5701 5701 5702 5701 5701 5703 5705 5706 5706 5707 5708 5709 5710 5710 5710 5710 5709 5708 5710 5711 5711 5710 5708 5707 5707 5707 5706
5610 5613 5615 5617 5620 5622 5625 5627 5629 5632 5634 5636 5639 5641 5644 5647 5649 5651 5655 5656 5657 5658 5660 5659 5659 5661 5662 5664 5666 5669 5671 5673 5675 5676 5676 5678 5680 5681 5681 5681 5683 5688 5692 5693 5692 5692 5693 5694 5694 5694 5695 5695 5697 5698 5698 5698 5700 5701 5701 5701 5701 5702 5702 5700 5699 5700 5701 5702 5701 5700 5700 5700 5699 5698
5604 5607 5609 5612 5614 5617 5618 5619 5621 5623 5625 5629 5632 5635 5637 5640 5642 5645 5648 5649 5649 5649 5650 5650 5651 5653 5654 5656 5658 5661 5663 5665 5666 5666 5667 5669 5670 5671 5673 5675 5675 5677 5681 5684 5685 5685 5686 5687 5688 5688 5687 5687 5688 5690 5689 5690 5692 5693 5692 5692 5692 5693 5695 5694 5691 5692 5693 5692 5691 5691 5692 5693 5692 5690
5598 5600 5603 5606 5608 5609 5610 5610 5612 5615 5618 5621 5624 5626 5629 5632 5635 5637 5639 5640 5640 5641 5642 5643 5644 5645 5647 5648 5650 5652 5655 5657 5658 5658 5659 5660 5662 5662 5664 5666 5667 5668 5670 5673 5677 5678 5678 5679 5680 5679 5679 5679 5679 5681 5683 5684 5684 5683 5683 5683 5684 5685 5687 5686 5683 5683 5683 5683 5683 5684 5685 5686 5685 5684
5592 5594 5596 5599 5601 5602 5603 5604 5606 5609 5612 5614 5614 5616 5620 5624 5627 5629 5630 5631 5632 5633 5634 5636 5636 5637 5639 5641 5642 5643 5645 5648 5649 5650 5651 5652 5653 5654 5654 5656 5659 5660 5661 5664 5667 5668 5668 5669 5670 5669 5670 5671 5670 5672 5676 5678 5676 5674 5674 5675 5677 5678 5678 5677 5675 5675 5675 5676 5677 5678 5678 5679 5679 5678
5587 5589 5590 5592 5595 5597 5598 5600 5601 5603 5606 5607 5608 5609 5612 5615 5618 5620 5622 5623 5624 5626 5627 5628 5629 5629 5631 5633 5634 5635 5636 5638 5640 5642 5643 5643 5644 5644 5646 5647 5649 5651 5653 5656 5657 5658 5658 5660 5661 5661 5662 5663 5662 5664 5668 5671 5669 5667 5665 5666 5669 5670 5669 5669 5669 5669 5669 5670 5670 5670 5671 5672 5673 5672
5583 5584 5586 5588 5590 5591 5593 5594 5596 5598 5600 5601 5601 5603 5606 5608 5610 5612 5614 5615 5616 5617 5618 5619 5621 5622 5623 5625 5626 5627 5628 5629 5631 5633 5634 5635 5635 5636 5637 5639 5641 5642 5645 5647 5649 5649 5649 5651 5653 5653 5654 5654 5654 5656 5658 5660 5660 5659 5658 5659 5661 5662 5661 5662 5663 5664 5663 5663 5663 5664 5664 5665 5665 5665
5579 5580 5582 5584 5585 5586 5587 5589 5590 5592 5593 5594 5595 5597 5599 5601 5603 5605 5606 5607 5608 5609 5610 5611 5612 5613 5614 5616 5618 5619 5620 5621 5622 5623 5625 5626 5627 5628 5629 5631 5632 5634 5636 5639 5641 5641 5641 5642 5644 5644 5644 5645 5646 5647 5649 5650 5652 5653 5652 5653 5655 5654 5653 5654 5656 5657 5657 5657 5657 5657 5657 5656 5657 5658
5576 5577 5578 5579 5580 5581 5582 5583 5584 5586 5587 5588 5589 5590 5592 5593 5595 5596 5597 5598 5600 5601 5602 5603 5604 5605 5606 5607 5609 5611 5612 5613 5614 5615 5616 5617 5618 5619 5620 5621 5623 5625 5626 5629 5632 5633 5633 5634 5634 5633 5634 5637 5638 5639 5640 5642 5644 5646 5647 5648 5648 5647 5646 5647 5648 5649 5650 5650 5649 5649 5649 5649 5650 5651
5572 5573 5574 5574 5575 5576 5576 5577 5578 5579 5580 5581 5582 5583 5584 5586 5587 5588 5590 5591 5592 5594 5595 5596 5597 5597 5598 5599 5600 5601 5602 5604 5605 5606 5607 5608 5609 5609 5610 5612 5614 5616 5617 5619 5621 5623 5624 5625 5625 5624 5625 5627 5629 5630 5631 5634 5637 5638 5639 5640 5640 5639 5640 5640 5640 5640 5641 5642 5641 5641 5642 5642 5643 5643
5569 5569 5570 5570 5570 5571 5571 5572 5573 5573 5574 5575 5576 5577 5578 5579 5580 5581 5582 5584 5585 5586 5587 5588 5589 5590 5591 5591 5592 5593 5594 5595 5596 5597 5598 5599 5600 5601 5601 5602 5604 5606 5607 5608 5609 5612 5615 5616 5616 5615 5615 5617 5619 5619 5621 5625 5628 5628 5629 5631 5632 5632 5632 5633 5633 5632 5633 5633 5633 5634 5634 5634 5634 5635
5565 5566 5566 5566 5566 5566 5566 5567 5567 5568 5569 5569 5570 5571 5572 5573 5574 5575 5576 5577 5579 5580 5580 5581 5582 5583 5584 5584 5585 5585 5586 5586 5587 5588 5589 5591 5592 5593 5593 5593 5594 5596 5597 5597 5599 5601 5604 5605 5605 5605 5606 5608 5609 5609 5611 5615 5617 5618 5619 5622 5624 5624 5624 5625 5625 5625 5625 5625 5626 5627 5627 5626 5626 5627
5562 5562 5562 5562 5562 5562 5561 5562 5562 5562 5563 5563 5564 5565 5566 5567 5567 5568 5570 5571 5572 5573 5574 5575 5576 5576 5577 5578 5578 5578 5578 5579 5579 5580 5581 5582 5582 5584 5585 5586 5586 5587 5587 5588 5589 5591 5592 5593 5594 5595 5597 5599 5600 5600 5602 5605 5606 5607 5610 5612 5613 5615 5615 5615 5616 5616 5617 5617 5618 5618 5618 5618 5618 5619
5559 5559 5558 5558 5558 5557 5557 5557 5557 5557 5557 5558 5558 5559 5559 5560 5561 5562 5563 5564 5565 5566 5567 5568 5568 5569 5570 5570 5571 5571 5571 5571 5572 5572 5573 5573 5574 5575 5576 5577 5578 5578 5578 5579 5580 5581 5582 5583 5584 5585 5587 5589 5590 5590 5592 5594 5595 5597 5599 5601 5603 5604 5604 5604 5605 5607 5608 5609 5609 5609 5609 5609 5610 5611